When you browse on this site, cookies collect data to enhance your experience and personalize the content and advertising you see.
Visit our Privacy Policy to learn more. By continuing to use the site, you agree to this use of cookies and data.
  • în România
  • Lista ţărilor
  • Pe 7 zile
  • Temperatura apei
  • Hartă satelitară
  • Meteo pe hartă
  • Widget-uri
  • user-avatar
    Intrare

    Meteo pe oră la Zmeyka

    Astăzi, 16 Ianuarie, Miercuri

    Timp Temperatura Precipitaţii Vânt Presiune Umiditate
    00:00 +1°C° 0 mm 2 m/s 719 mmHg 80%
    01:00 +1°C° 0 mm 2 m/s 719 mmHg 76%
    02:00 +2°C° 0 mm 2 m/s 719 mmHg 73%
    03:00 +2°C° 0 mm 1 m/s 718 mmHg 77%
    04:00 +3°C° 0 mm 1 m/s 718 mmHg 73%
    05:00 +3°C° 0 mm 1 m/s 719 mmHg 69%
    06:00 +4°C° 0 mm 1 m/s 719 mmHg 65%
    07:00 +5°C° 0 mm 1 m/s 719 mmHg 62%
    08:00 +5°C° 0 mm 1 m/s 718 mmHg 59%
    09:00 +7°C° 0 mm 1 m/s 718 mmHg 55%
    10:00 +6°C° 0 mm 2 m/s 719 mmHg 54%
    11:00 +7°C° 0 mm 3 m/s 719 mmHg 54%
    12:00 +8°C° 0 mm 3 m/s 720 mmHg 53%
    13:00 +6°C° 0 mm 5 m/s 721 mmHg 62%
    14:00 +3°C° 0 mm 6 m/s 721 mmHg 72%
    15:00 -1°C° 0 mm 8 m/s 721 mmHg 82%
    16:00 -1°C° 0 mm 7 m/s 722 mmHg 81%
    17:00 -2°C° 0 mm 6 m/s 723 mmHg 81%
    18:00 -2°C° 0 mm 5 m/s 724 mmHg 80%
    19:00 -2°C° 0 mm 4 m/s 725 mmHg 80%
    20:00 -2°C° 0 mm 4 m/s 725 mmHg 81%
    21:00 -1°C° 0 mm 3 m/s 726 mmHg 81%
    22:00 -1°C° 0 mm 3 m/s 726 mmHg 80%
    23:00 -2°C° 0 mm 3 m/s 726 mmHg 79%

    Mâine, 17 Ianuarie, Joi

    Timp Temperatura Precipitaţii Vânt Presiune Umiditate
    00:00 -2°C° 0 mm 2 m/s 726 mmHg 79%
    01:00 -2°C° 0.1 mm 2 m/s 727 mmHg 79%
    02:00 -2°C° 0.1 mm 2 m/s 727 mmHg 79%
    03:00 0°C° 0.1 mm 1 m/s 727 mmHg 79%
    04:00 0°C° 0.1 mm 1 m/s 728 mmHg 80%
    05:00 0°C° 0.1 mm 1 m/s 728 mmHg 81%
    06:00 0°C° 0.1 mm 1 m/s 729 mmHg 82%
    07:00 0°C° 0 mm 1 m/s 729 mmHg 81%
    08:00 0°C° 0 mm 1 m/s 730 mmHg 80%
    09:00 0°C° 0 mm 1 m/s 730 mmHg 79%
    10:00 0°C° 0 mm 1 m/s 731 mmHg 76%
    11:00 +1°C° 0 mm 1 m/s 731 mmHg 73%
    12:00 +1°C° 0 mm 1 m/s 731 mmHg 70%
    13:00 +1°C° 0 mm 1 m/s 731 mmHg 70%
    14:00 +1°C° 0 mm 1 m/s 732 mmHg 69%
    15:00 +1°C° 0 mm 2 m/s 732 mmHg 68%
    16:00 +1°C° 0 mm 1 m/s 733 mmHg 73%
    17:00 0°C° 0 mm 1 m/s 733 mmHg 77%
    18:00 0°C° 0 mm 1 m/s 734 mmHg 81%
    19:00 0°C° 0 mm 1 m/s 734 mmHg 83%
    20:00 -1°C° 0 mm 1 m/s 734 mmHg 84%
    21:00 -1°C° 0 mm 1 m/s 735 mmHg 86%
    22:00 -1°C° 0 mm 1 m/s 735 mmHg 85%
    23:00 -1°C° 0 mm 1 m/s 735 mmHg 83%

    Poimâine, 18 Ianuarie, Vineri

    Timp Temperatura Precipitaţii Vânt Presiune Umiditate
    00:00 0°C° 0 mm 1 m/s 735 mmHg 82%
    01:00 0°C° 0 mm 1 m/s 736 mmHg 79%
    02:00 0°C° 0 mm 1 m/s 736 mmHg 77%
    03:00 0°C° 0 mm 1 m/s 736 mmHg 74%
    04:00 0°C° 0 mm 1 m/s 736 mmHg 71%
    05:00 0°C° 0 mm 1 m/s 736 mmHg 68%
    06:00 0°C° 0 mm 1 m/s 736 mmHg 66%
    07:00 0°C° 0 mm 1 m/s 736 mmHg 62%
    08:00 +1°C° 0 mm 1 m/s 737 mmHg 58%
    09:00 +1°C° 0 mm 1 m/s 737 mmHg 54%
    10:00 +3°C° 0 mm 1 m/s 736 mmHg 49%
    11:00 +3°C° 0 mm 0 m/s 736 mmHg 43%
    12:00 +4°C° 0 mm 0 m/s 736 mmHg 38%
    13:00 +4°C° 0 mm 0 m/s 736 mmHg 41%
    14:00 +5°C° 0 mm 1 m/s 735 mmHg 43%
    15:00 +5°C° 0 mm 1 m/s 735 mmHg 45%
    16:00 +4°C° 0 mm 1 m/s 735 mmHg 50%
    17:00 +3°C° 0 mm 1 m/s 736 mmHg 56%
    18:00 +1°C° 0 mm 1 m/s 736 mmHg 61%
    19:00 +1°C° 0 mm 1 m/s 736 mmHg 61%
    20:00 +1°C° 0 mm 1 m/s 736 mmHg 61%
    21:00 +1°C° 0 mm 1 m/s 736 mmHg 62%
    22:00 +1°C° 0 mm 1 m/s 736 mmHg 60%
    23:00 +1°C° 0 mm 1 m/s 736 mmHg 59%

    19 Ianuarie, Sâmbătă

    Timp Temperatura Precipitaţii Vânt Presiune Umiditate
    00:00 +1°C° 0 mm 1 m/s 735 mmHg 57%
    01:00 +1°C° 0 mm 1 m/s 735 mmHg 55%
    02:00 +1°C° 0 mm 1 m/s 735 mmHg 53%
    03:00 +1°C° 0 mm 1 m/s 735 mmHg 51%
    04:00 +1°C° 0 mm 1 m/s 735 mmHg 49%
    05:00 +1°C° 0 mm 1 m/s 735 mmHg 47%
    06:00 +1°C° 0 mm 1 m/s 735 mmHg 44%
    07:00 +2°C° 0 mm 1 m/s 735 mmHg 42%
    08:00 +2°C° 0 mm 1 m/s 735 mmHg 39%
    09:00 +3°C° 0 mm 1 m/s 735 mmHg 37%
    10:00 +4°C° 0 mm 1 m/s 734 mmHg 33%
    11:00 +6°C° 0 mm 1 m/s 734 mmHg 30%
    12:00 +7°C° 0 mm 1 m/s 734 mmHg 27%
    13:00 +7°C° 0 mm 1 m/s 734 mmHg 30%
    14:00 +6°C° 0 mm 0 m/s 734 mmHg 34%
    15:00 +6°C° 0 mm 0 m/s 734 mmHg 37%
    16:00 +5°C° 0 mm 0 m/s 734 mmHg 38%
    17:00 +5°C° 0 mm 1 m/s 734 mmHg 38%
    18:00 +4°C° 0 mm 1 m/s 734 mmHg 39%
    19:00 +4°C° 0 mm 1 m/s 734 mmHg 39%
    20:00 +4°C° 0 mm 1 m/s 735 mmHg 38%
    21:00 +3°C° 0 mm 1 m/s 735 mmHg 38%
    22:00 +3°C° 0 mm 1 m/s 735 mmHg 38%
    23:00 +3°C° 0 mm 1 m/s 735 mmHg 38%

    20 Ianuarie, Duminică

    Timp Temperatura Precipitaţii Vânt Presiune Umiditate
    00:00 +3°C° 0 mm 1 m/s 735 mmHg 38%
    01:00 +3°C° 0 mm 1 m/s 735 mmHg 38%
    02:00 +3°C° 0 mm 1 m/s 735 mmHg 39%
    03:00 +3°C° 0 mm 1 m/s 735 mmHg 39%
    04:00 +3°C° 0 mm 1 m/s 735 mmHg 40%
    05:00 +3°C° 0 mm 1 m/s 735 mmHg 41%
    06:00 +2°C° 0 mm 0 m/s 735 mmHg 42%
    07:00 +2°C° 0 mm 0 m/s 735 mmHg 42%
    08:00 +2°C° 0 mm 0 m/s 736 mmHg 43%
    09:00 +3°C° 0 mm 0 m/s 736 mmHg 44%
    10:00 +3°C° 0 mm 0 m/s 736 mmHg 43%
    11:00 +4°C° 0 mm 0 m/s 736 mmHg 43%
    12:00 +6°C° 0 mm 1 m/s 735 mmHg 42%
    13:00 +6°C° 0 mm 1 m/s 735 mmHg 45%
    14:00 +6°C° 0 mm 1 m/s 735 mmHg 49%
    15:00 +6°C° 0 mm 1 m/s 735 mmHg 52%
    16:00 +5°C° 0 mm 1 m/s 735 mmHg 56%
    17:00 +4°C° 0 mm 1 m/s 736 mmHg 61%
    18:00 +3°C° 0 mm 1 m/s 736 mmHg 65%
    19:00 +3°C° 0 mm 1 m/s 736 mmHg 65%
    20:00 +2°C° 0 mm 1 m/s 736 mmHg 65%
    21:00 +1°C° 0 mm 2 m/s 736 mmHg 65%
    22:00 +1°C° 0 mm 2 m/s 736 mmHg 64%
    23:00 +1°C° 0 mm 2 m/s 736 mmHg 64%

    21 Ianuarie, Luni

    Timp Temperatura Precipitaţii Vânt Presiune Umiditate
    00:00 -1°C° 0 mm 2 m/s 735 mmHg 63%
    01:00 -1°C° 0 mm 2 m/s 735 mmHg 63%
    02:00 -1°C° 0 mm 2 m/s 735 mmHg 64%
    03:00 -1°C° 0 mm 2 m/s 735 mmHg 64%
    04:00 -1°C° 0 mm 2 m/s 735 mmHg 65%
    05:00 -1°C° 0 mm 2 m/s 734 mmHg 66%
    06:00 -1°C° 0 mm 2 m/s 734 mmHg 67%
    07:00 -1°C° 0 mm 2 m/s 734 mmHg 65%
    08:00 -1°C° 0 mm 2 m/s 734 mmHg 64%
    09:00 +1°C° 0 mm 2 m/s 734 mmHg 62%
    10:00 +2°C° 0 mm 2 m/s 733 mmHg 57%
    11:00 +3°C° 0 mm 2 m/s 733 mmHg 52%
    12:00 +5°C° 0 mm 2 m/s 732 mmHg 47%
    13:00 +5°C° 0 mm 2 m/s 732 mmHg 48%
    14:00 +5°C° 0 mm 2 m/s 731 mmHg 50%
    15:00 +5°C° 0 mm 2 m/s 731 mmHg 52%
    16:00 +4°C° 0 mm 2 m/s 731 mmHg 56%
    17:00 +3°C° 0 mm 2 m/s 731 mmHg 61%
    18:00 +3°C° 0 mm 1 m/s 731 mmHg 65%
    19:00 +3°C° 0 mm 1 m/s 731 mmHg 63%
    20:00 +3°C° 0 mm 1 m/s 731 mmHg 61%
    21:00 +3°C° 0 mm 1 m/s 731 mmHg 59%
    22:00 +3°C° 0 mm 1 m/s 731 mmHg 57%
    23:00 +4°C° 0 mm 1 m/s 731 mmHg 55%
    Arată mai mult